This is the latest recevied weather packets stored in our database for station/object NR5ON-13. If no packets are shown the sender has not sent any weather packets the latest 10 day(s).
| Time | Temp. | Humidity | Pressure | Rain* | Wind** | Luminosity | Snow |
|---|---|---|---|---|---|---|---|
| 1777919008 | 18.33° C | 23% | 1016.3 hPa | 0 mm | - | - | - |
| 1777918713 | 18.33° C | 23% | 1016.4 hPa | 0 mm | - | - | - |
| 1777918420 | 18.33° C | 24% | 1016.5 hPa | 0 mm | - | - | - |
| 1777918104 | 17.78° C | 24% | 1016.5 hPa | 0 mm | - | - | - |
| 1777917810 | 18.33° C | 26% | 1016.7 hPa | 0 mm | - | - | - |
| 1777917516 | 18.33° C | 25% | 1016.7 hPa | 0 mm | - | - | - |
| 1777917221 | 17.78° C | 28% | 1016.7 hPa | 0 mm | - | - | - |
| 1777916911 | 17.78° C | 29% | 1016.8 hPa | 0 mm | - | - | - |
| 1777916616 | 17.78° C | 29% | 1017.1 hPa | 0 mm | - | - | - |
| 1777916321 | 17.78° C | 29% | 1017 hPa | 0 mm | - | - | - |
| 1777916006 | 17.78° C | 29% | 1017 hPa | 0 mm | - | - | - |
| 1777915714 | 17.22° C | 33% | 1016.9 hPa | 0 mm | - | - | - |
| 1777915402 | 17.22° C | 32% | 1017 hPa | 0 mm | - | - | - |
| 1777915109 | 17.22° C | 32% | 1017 hPa | 0 mm | - | - | - |
| 1777914817 | 17.22° C | 36% | 1017.1 hPa | 0 mm | - | - | - |
| 1777914521 | 17.22° C | 38% | 1017.2 hPa | 0 mm | - | - | - |
| 1777914206 | 16.67° C | 40% | 1017.1 hPa | 0 mm | - | - | - |
| 1777913914 | 16.67° C | 40% | 1017.1 hPa | 0 mm | - | - | - |
| 1777913619 | 16.67° C | 41% | 1017.2 hPa | 0 mm | - | - | - |
| 1777913303 | 16.11° C | 41% | 1017.4 hPa | 0 mm | - | - | - |
| 1777913008 | 16.67° C | 40% | 1017.5 hPa | 0 mm | - | - | - |
| 1777912712 | 16.67° C | 37% | 1017.3 hPa | 0 mm | - | - | - |
| 1777912418 | 16.67° C | 39% | 1017.3 hPa | 0 mm | - | - | - |
| 1777912102 | 16.11° C | 39% | 1017.5 hPa | 0 mm | - | - | - |
| 1777911806 | 16.11° C | 42% | 1017.4 hPa | 0 mm | - | - | - |
* Rain latest hour (hover to see other rain measurements)
** Current wind speed in m/s (hover to see current wind gust speed)